EW2889 Weather Reports


Display with metric or nautical units.
time (UTC)temp
F
wind
direction
speed
MPH
gust
MPH
rain 1hr
in
rain 24hr
in
rain mn
in
humidity
%
barometer
mb
20181020213041 64 127 0.0 3.0 0.00 0.09 0.09 89 1006.2
20181020211541 65 236 0.0 4.0 0.00 0.09 0.09 89 1006.3
20181020210054 65 132 0.0 6.0 0.00 0.09 0.09 88 1006.3
20181020204558 65 246 1.0 8.0 0.00 0.09 0.09 90 1006.6
20181020203049 65 157 0.0 8.0 0.00 0.09 0.09 91 1006.7
20181020201540 65 232 0.0 4.0 0.00 0.09 0.09 93 1006.8
20181020200058 66 307 0.0 3.0 0.00 0.09 0.09 92 1006.8
20181020194547 66 248 0.0 2.0 0.00 0.09 0.09 92 1007.0
20181020193029 66 151 0.0 6.0 0.00 0.09 0.09 94 1007.3
20181020191524 65 214 0.0 4.0 0.00 0.09 0.09 93 1007.7
20181020190020 65 186 0.0 3.0 0.01 0.09 0.09 93 1008.1
20181020184519 65 339 0.0 6.0 0.01 0.09 0.09 93 1007.9
20181020183016 65 225 0.0 5.0 0.04 0.09 0.09 94 1008.0
20181020181513 65 259 0.0 4.0 0.07 0.09 0.09 94 1008.4
20181020180010 65 207 0.0 3.0 0.06 0.08 0.08 94 1008.8
20181020174530 65 245 0.0 4.0 0.05 0.07 0.07 93 1009.0
20181020173010 66 240 0.0 3.0 0.03 0.05 0.05 92 1009.3
20181020171505 66 251 0.0 3.0 0.00 0.02 0.02 90 1009.8
20181020170009 66 155 0.0 3.0 0.00 0.02 0.02 91 1009.9
20181020164502 66 252 0.0 3.0 0.01 0.02 0.02 88 1010.1
20181020161633 67 240 0.0 4.0 0.01 0.02 0.02 90 1010.3
20181020160225 67 253 0.0 2.0 0.01 0.02 0.02 91 1010.5
20181020154653 67 281 0.0 6.0 0.01 0.01 0.01 91 1010.7
20181020153120 67 263 0.0 4.0 0.01 0.01 0.01 91 1010.5
20181020151639 67 300 0.0 2.0 0.01 0.01 0.01 92 1010.7
20181020150208 67 271 0.0 3.0 0.01 0.01 0.01 91 1010.7
20181020144704 67 242 1.0 8.0 0.00 0.00 0.00 92 1011.0
20181020143139 67 216 0.0 3.0 0.00 0.00 0.00 93 1011.3
20181020141613 67 307 0.0 4.0 0.00 0.00 0.00 93 1011.3
20181020140120 67 250 0.0 7.0 0.00 0.00 0.00 93 1011.2
20181020134639 67 262 0.0 5.0 0.00 0.00 0.00 93 1011.0
20181020133246 67 273 0.0 6.0 0.00 0.00 0.00 93 1011.2
20181020131547 66 75 0.0 4.0 0.00 0.00 0.00 94 1011.3
20181020130113 66 244 0.0 8.0 0.00 0.00 0.00 95 1011.3
20181020124727 65 144 0.0 5.0 0.00 0.00 0.00 95 1011.3
20181020123108 65 105 0.0 7.0 0.00 0.00 0.00 96 1011.5
20181020121633 64 148 0.0 3.0 0.00 0.00 0.00 96 1011.2
20181020120054 64 135 0.0 4.0 0.00 0.00 0.00 96 1011.3
20181020114550 64 122 0.0 2.0 0.00 0.00 0.00 96 1011.4
20181020113050 64 158 0.0 4.0 0.00 0.00 0.00 96 1011.2
20181020111554 64 128 0.0 3.0 0.00 0.00 0.00 95 1011.6
20181020110124 63 71 0.0 3.0 0.00 0.00 0.00 95 1011.8
20181020104554 63 134 0.0 2.0 0.00 0.00 0.00 96 1012.2
20181020103038 62 306 0.0 4.0 0.00 0.00 0.00 95 1012.3
20181020101545 62 272 0.0 0.0 0.00 0.00 0.00 95 1012.4
20181020100024 62 300 0.0 2.0 0.00 0.00 0.00 95 1012.2
20181020094557 61 132 0.0 2.0 0.00 0.00 0.00 94 1012.6
20181020093038 61 129 0.0 2.0 0.00 0.00 0.00 94 1012.7
20181020091524 61 157 0.0 2.0 0.00 0.00 0.00 93 1013.0
20181020090028 61 186 0.0 1.0 0.00 0.00 0.00 92 1012.9
20181020084519 61 143 0.0 1.0 0.00 0.00 0.00 92 1013.0
20181020083014 60 174 0.0 0.0 0.00 0.00 0.00 92 1013.3
20181020081515 60 119 0.0 0.0 0.00 0.00 0.00 93 1013.5
20181020080008 60 139 0.0 0.0 0.00 0.00 0.00 92 1013.9
20181020074506 60 139 0.0 3.0 0.00 0.00 0.00 92 1013.9
20181020073004 59 167 0.0 2.0 0.00 0.00 0.00 91 1014.1
20181020071617 59 276 0.0 0.0 0.00 0.00 0.00 91 1014.3
20181020070134 59 150 0.0 2.0 0.00 0.00 0.00 90 1014.3
20181020064721 59 122 0.0 3.0 0.00 0.00 0.00 89 1014.4
20181020063121 58 110 0.0 3.0 0.00 0.00 0.00 89 1014.5
20181020061556 58 146 0.0 3.0 0.00 0.00 0.00 88 1015.0
20181020060248 58 161 0.0 4.0 0.00 0.00 0.00 87 1015.4
20181020054557 58 151 0.0 3.0 0.00 0.00 0.00 87 1015.5
20181020053201 57 141 0.0 2.0 0.00 0.00 0.00 87 1015.9
20181020051630 57 134 0.0 4.0 0.00 0.00 0.00 86 1015.8
20181020050057 57 113 0.0 3.0 0.00 0.00 0.00 86 1016.1
20181020044701 57 143 0.0 0.0 0.00 0.00 0.00 86 1016.3
20181020043047 57 127 0.0 3.0 0.00 0.00 0.00 86 1016.5
20181020041541 57 121 0.0 3.0 0.00 0.00 0.00 85 1016.6
20181020040047 57 130 0.0 3.0 0.00 0.00 0.00 84 1017.0
20181020034530 57 168 0.0 3.0 0.00 0.00 0.00 83 1017.3
20181020033048 57 120 0.0 3.0 0.00 0.00 0.00 83 1017.4
20181020031535 57 246 1.0 6.0 0.00 0.00 0.00 83 1017.7
20181020030041 56 126 0.0 2.0 0.00 0.00 0.00 83 1018.1
20181020024522 56 124 0.0 3.0 0.00 0.00 0.00 83 1018.3
20181020023032 56 125 0.0 3.0 0.00 0.00 0.00 83 1018.7
20181020021524 56 205 0.0 4.0 0.00 0.00 0.00 82 1018.6
20181020020028 56 231 0.0 2.0 0.00 0.00 0.00 81 1019.0
20181020014518 56 123 0.0 3.0 0.00 0.00 0.00 81 1019.0
20181020013016 55 131 0.0 2.0 0.00 0.00 0.00 80 1019.2
20181020011516 55 131 0.0 2.0 0.00 0.00 0.00 79 1019.3
20181020010009 55 144 0.0 3.0 0.00 0.00 0.00 78 1019.5
20181020004503 55 132 0.0 1.0 0.00 0.00 0.00 78 1019.7
20181020003008 54 128 0.0 1.0 0.00 0.00 0.00 79 1019.9
20181020001743 54 145 0.0 0.0 0.00 0.00 0.00 81 1020.0
20181020000129 54 200 0.0 0.0 0.00 0.00 0.00 80 1020.4
20181019234654 54 141 0.0 0.0 0.00 0.00 0.00 79 1020.4
20181019233114 54 141 0.0 0.0 0.00 0.00 0.00 79 1020.6
20181019231655 55 141 0.0 0.0 0.00 0.00 0.00 79 1020.7
20181019230122 56 141 0.0 0.0 0.00 0.00 0.00 76 1020.6
20181019224707 57 141 0.0 0.0 0.00 0.00 0.00 72 1020.6
20181019223123 59 141 0.0 0.0 0.00 0.00 0.00 68 1021.0
20181019221637 60 141 0.0 0.0 0.00 0.00 0.00 61 1021.1
20181019220111 62 141 0.0 0.0 0.00 0.00 0.00 56 1021.1
20181019214704 63 120 0.0 2.0 0.00 0.00 0.00 53 1021.2